[[{"header":{"parameterUnit":"m.s-1","parameterCategory":1,"la1":30.2991,"la2":30.254,"lo1":-89.0895,"lo2":-89.0444,"dy":0.0017,"dx":0.0017,"nx":28,"ny":28,"refTime":"2026-01-07T03:00:00:Z","depth":0,"parameterNumber":2,"parameterNumberName":"U-component_of_WINDS"},"data":[0,0,0,0,0,0,0,0,0,0,0,0,0,0,0,0,0,0,0,0,0,0,0,0,0,0,0,0,0,0,0,0,0,0,0,0,0,0,0,0,0,0,0,0,0,0,0,0,0,0,0,0,0,0,0,0,0,0,-0.635,-0.6348,0,-0.6186,-0.6184,-0.6182,-0.6075,-0.6074,-0.6074,-0.6073,-0.5904,-0.59,-0.5896,0,0,0,0,0,0,0,0,0,0,0,0,0,-0.657,-0.6566,-0.635,-0.6348,-0.6346,-0.6186,-0.6184,-0.6182,-0.6075,-0.6074,-0.6074,-0.6073,-0.5905,-0.5901,-0.5896,0,0,0,0,0,0,0,0,0,0,0,0,0,-0.6447,-0.6565,-0.635,-0.6274,-0.6265,-0.6187,-0.6184,-0.6181,-0.6075,-0.6074,-0.6073,-0.6072,-0.5907,-0.5901,-0.5895,-0.588,0,0,-0.5878,-0.5875,0,0,0,0,0,0,0,0,-0.6454,-0.6439,-0.6287,-0.6279,-0.6269,-0.615,-0.6199,-0.608,-0.6076,-0.6147,-0.6073,-0.6072,-0.5986,-0.5974,-0.5945,-0.5872,-0.5865,-0.5877,-0.5874,-0.5871,-0.5869,0,0,0,0,0,0,0,-0.6463,-0.6446,-0.6285,-0.6285,-0.6274,-0.6247,-0.6228,-0.6176,-0.6075,-0.6141,-0.6133,-0.6115,-0.5981,-0.5951,-0.5941,-0.5862,-0.5877,-0.5872,-0.5868,-0.5866,-0.5767,-0.5768,0,0,0,0,0,0,-0.6484,-0.6453,-0.629,-0.628,-0.6361,-0.6244,-0.6223,-0.6189,-0.6075,-0.6057,-0.6116,-0.6111,-0.5962,-0.5948,-0.5934,-0.5908,-0.5871,-0.5866,-0.5862,-0.5766,-0.5767,-0.5768,0,0,0,0,0,0,-0.6489,-0.647,-0.6297,-0.6364,-0.634,-0.6241,-0.6204,-0.6186,-0.6156,-0.6056,-0.6037,-0.6104,-0.596,-0.5943,-0.5894,-0.5901,-0.5863,-0.5858,-0.5765,-0.5767,-0.5768,-0.5857,0,0,0,0,0,0,-0.6496,-0.6473,-0.6466,-0.6365,-0.6337,-0.626,-0.6204,-0.6184,-0.6147,-0.6138,-0.604,-0.6022,-0.5958,-0.5903,-0.5888,-0.5892,-0.5853,-0.5764,-0.5766,-0.5767,-0.5853,-0.5861,-0.5868,0,0,0,0,0,-0.6504,-0.6497,-0.6466,-0.6447,-0.6327,-0.6261,-0.6244,-0.6171,-0.6148,-0.614,-0.6076,-0.6026,-0.5903,-0.5899,-0.5882,-0.5884,-0.5763,-0.5765,-0.5767,-0.5849,-0.5859,-0.5868,0,0,0,0,0,0,-0.6601,-0.6483,-0.6447,-0.6408,-0.6345,-0.6243,-0.6231,-0.6184,-0.6126,-0.6121,-0.6031,-0.601,-0.5971,-0.5922,-0.5921,-0.5863,-0.5827,-0.5826,-0.5896,-0.5904,-0.5912,-0.5924,-0.5848,0,0,0,0,0,-0.6618,-0.6575,-0.6473,-0.6448,-0.6419,-0.6331,-0.6299,-0.6248,-0.6179,-0.6152,-0.6084,-0.6019,-0.5966,-0.5932,-0.5878,-0.5845,-0.5822,-0.5838,-0.5846,-0.5852,-0.5852,-0.5831,-0.5837,-0.5775,-0.5775,-0.5775,0,0,-0.6652,-0.6582,-0.656,-0.6466,-0.6412,-0.6368,-0.6309,-0.6265,-0.6232,-0.6145,-0.6095,-0.6044,-0.5965,-0.5925,-0.5904,-0.5883,-0.5864,-0.5855,-0.5861,-0.5857,-0.5834,-0.584,-0.5845,-0.5776,-0.5776,-0.5776,0,0,-0.6693,-0.6636,-0.6608,-0.6555,-0.6474,-0.6415,-0.6409,-0.6313,-0.6276,-0.6224,-0.6158,-0.6117,-0.6027,-0.5974,-0.5935,-0.5956,-0.5908,-0.5941,-0.598,-0.5961,-0.5966,-0.597,-0.5977,-0.598,-0.5941,-0.5941,-0.5941,0,-0.6746,-0.6678,-0.66,-0.6561,-0.6521,-0.6441,-0.6413,-0.6365,-0.627,-0.6244,-0.6223,-0.6108,-0.605,-0.5996,-0.6001,-0.5972,-0.5962,-0.5952,-0.5972,-0.5975,-0.5977,-0.5983,-0.5986,-0.5946,-0.5945,-0.5945,-0.5944,0,-0.6747,-0.6701,-0.6689,-0.6599,-0.6558,-0.6525,-0.6442,-0.641,-0.6362,-0.6306,-0.6255,-0.6182,-0.6111,-0.6095,-0.6048,-0.6034,-0.6024,-0.5989,-0.5951,-0.5989,-0.5993,-0.5994,-0.5952,-0.5951,-0.5949,-0.5948,0,0,-0.6843,-0.6712,-0.6708,-0.6667,-0.6571,-0.6534,-0.6497,-0.6428,-0.6402,-0.6339,-0.6305,-0.6231,-0.6198,-0.6154,-0.61,-0.6084,-0.6105,-0.605,-0.6046,-0.6062,-0.6084,-0.6111,-0.6115,-0.6072,-0.6072,-0.6073,-0.6091,0,-0.6869,-0.6798,-0.6727,-0.6681,-0.6637,-0.6561,-0.6528,-0.6466,-0.6413,-0.6368,-0.6308,-0.6257,-0.6217,-0.619,-0.617,-0.6107,-0.6108,-0.6104,-0.6039,-0.6038,-0.6061,-0.6117,-0.6145,-0.6166,-0.6092,-0.6092,-0.6092,0,-0.6889,-0.683,-0.678,-0.6688,-0.6667,-0.664,-0.6571,-0.6529,-0.6457,-0.6419,-0.6371,-0.6314,-0.627,-0.6239,-0.6178,-0.6177,-0.6146,-0.6111,-0.611,-0.61,-0.6067,-0.6108,-0.617,-0.6174,-0.6094,-0.6094,-0.6093,0,-0.6964,-0.6872,-0.683,-0.6797,-0.6689,-0.6671,-0.6625,-0.6552,-0.6515,-0.6455,-0.643,-0.6366,-0.6331,-0.6282,-0.621,-0.6194,-0.6156,-0.6119,-0.6123,-0.6125,-0.6118,-0.6119,-0.6176,-0.61,-0.61,-0.61,-0.61,0,-0.6999,-0.6972,-0.6862,-0.6836,-0.6803,-0.6722,-0.6691,-0.6639,-0.6574,-0.6537,-0.6467,-0.6433,-0.634,-0.6295,-0.6238,-0.6195,-0.618,-0.6148,-0.6133,-0.6154,-0.6158,-0.6132,-0.6128,-0.6101,-0.61,-0.61,-0.61,0,-0.7077,-0.7003,-0.6952,-0.6854,-0.6829,-0.6809,-0.6725,-0.6697,-0.664,-0.6593,-0.6577,-0.6488,-0.6431,-0.6354,-0.6274,-0.6235,-0.62,-0.6177,-0.6225,-0.6216,-0.6225,-0.6225,-0.6266,-0.6267,-0.6192,-0.6193,-0.6194,0,-0.7104,-0.7081,-0.6981,-0.6951,-0.6908,-0.6861,-0.6823,-0.6742,-0.6706,-0.6622,-0.6604,-0.6542,-0.6488,-0.6401,-0.6329,-0.6267,-0.6241,-0.626,-0.6231,-0.6253,-0.624,-0.6243,-0.624,-0.6266,-0.6268,-0.6269,-0.6269,0,-0.7161,-0.7125,-0.7074,-0.7009,-0.6966,-0.6911,-0.6853,-0.6833,-0.674,-0.6702,-0.6644,-0.6602,-0.652,-0.6459,-0.6388,-0.634,-0.6289,-0.6279,-0.6277,-0.6297,-0.6326,-0.631,-0.6243,-0.6278,-0.6277,-0.6277,-0.6276,-0.6276,-0.7213,-0.7189,-0.7115,-0.706,-0.7008,-0.6956,-0.6924,-0.6863,-0.6813,-0.674,-0.6696,-0.6639,-0.6567,-0.6466,-0.6421,-0.6375,-0.6355,-0.6352,-0.6351,-0.6351,-0.6358,-0.6334,-0.6362,-0.6362,-0.6361,-0.6361,-0.6361,0,-0.7266,-0.7214,-0.7164,-0.7086,-0.7042,-0.6999,-0.6932,-0.6899,-0.685,-0.6787,-0.6736,-0.6669,-0.661,-0.6533,-0.6468,-0.6446,-0.6421,-0.6432,-0.6432,-0.6422,-0.638,-0.6388,-0.6453,-0.6453,-0.6453,-0.6453,-0.6453,-0.6453,-0.7288,-0.7244,-0.72,-0.7131,-0.7079,-0.7023,-0.6989,-0.694,-0.689,-0.6818,-0.6768,-0.6719,-0.665,-0.658,-0.6524,-0.6502,-0.6482,-0.6499,-0.6471,-0.6433,-0.6425,-0.6417,-0.6424,-0.6496,-0.6496,-0.6517,-0.6517,-0.6517]},{"header":{"parameterUnit":"m.s-1","parameterCategory":1,"la1":30.2991,"la2":30.254,"lo1":-89.0895,"lo2":-89.0444,"dy":0.0017,"dx":0.0017,"nx":28,"ny":28,"refTime":"2026-01-07T03:00:00:Z","depth":0,"parameterNumber":3,"parameterNumberName":"V-component_of_WINDS"},"data":[0,0,0,0,0,0,0,0,0,0,0,0,0,0,0,0,0,0,0,0,0,0,0,0,0,0,0,0,0,0,0,0,0,0,0,0,0,0,0,0,0,0,0,0,0,0,0,0,0,0,0,0,0,0,0,0,0,0,2.0285,2.0285,0,2.0299,2.0299,2.0299,2.0295,2.0295,2.0295,2.0294,2.0306,2.0307,2.0307,0,0,0,0,0,0,0,0,0,0,0,0,0,2.0252,2.0253,2.0285,2.0285,2.0285,2.0299,2.0299,2.0299,2.0295,2.0295,2.0295,2.0294,2.0306,2.0306,2.0307,0,0,0,0,0,0,0,0,0,0,0,0,0,2.0266,2.0253,2.0285,2.0285,2.0285,2.0299,2.0299,2.0299,2.0295,2.0295,2.0294,2.0294,2.0306,2.0306,2.0307,2.0321,0,0,2.031,2.031,0,0,0,0,0,0,0,0,2.0265,2.0267,2.0285,2.0285,2.0285,2.0295,2.0292,2.0306,2.0295,2.0291,2.0294,2.0294,2.0302,2.0304,2.0307,2.0321,2.0322,2.031,2.031,2.0311,2.0311,0,0,0,0,0,0,0,2.0264,2.0267,2.029,2.0285,2.0285,2.0283,2.0285,2.0295,2.0299,2.0292,2.0291,2.0293,2.0302,2.0306,2.0307,2.0322,2.031,2.0311,2.0311,2.0312,2.035,2.035,0,0,0,0,0,0,2.0264,2.0266,2.029,2.0291,2.0274,2.0284,2.0286,2.0292,2.0299,2.03,2.0294,2.0293,2.0305,2.0306,2.0308,2.0325,2.0311,2.0312,2.0312,2.0349,2.035,2.035,0,0,0,0,0,0,2.0263,2.0266,2.0289,2.0278,2.0281,2.0285,2.0292,2.0293,2.0296,2.03,2.0301,2.0297,2.0305,2.0306,2.0318,2.0326,2.0312,2.0313,2.0348,2.0349,2.035,2.036,0,0,0,0,0,0,2.0262,2.0266,2.0271,2.0278,2.0282,2.03,2.0293,2.0293,2.0298,2.0298,2.0304,2.0304,2.0304,2.0317,2.0319,2.0326,2.0313,2.0348,2.0349,2.035,2.0359,2.0361,2.0362,0,0,0,0,0,2.0261,2.0273,2.0272,2.0275,2.0289,2.0301,2.0302,2.0303,2.0299,2.0304,2.0307,2.0304,2.0324,2.0318,2.032,2.0328,2.0347,2.0349,2.035,2.0358,2.036,2.0362,0,0,0,0,0,0,2.0265,2.0273,2.0273,2.0287,2.0293,2.03,2.0307,2.0306,2.0313,2.0312,2.0312,2.0313,2.0325,2.0328,2.0321,2.0342,2.0335,2.0337,2.0341,2.0343,2.0345,2.0344,2.0314,0,0,0,0,0,2.0268,2.0277,2.0284,2.0296,2.0299,2.0303,2.0308,2.0308,2.0314,2.0316,2.032,2.0325,2.0333,2.0338,2.0345,2.0359,2.036,2.0365,2.0367,2.0369,2.037,2.0379,2.0382,2.0354,2.0354,2.0354,0,0,2.0273,2.0279,2.0285,2.0297,2.0302,2.0311,2.0305,2.0315,2.0322,2.0317,2.033,2.0332,2.0338,2.0351,2.0357,2.0354,2.0378,2.037,2.0371,2.0372,2.038,2.0383,2.0385,2.0355,2.0355,2.0354,0,0,2.0288,2.0293,2.0305,2.031,2.0318,2.0321,2.0323,2.033,2.0333,2.0345,2.0342,2.035,2.0363,2.0367,2.0371,2.0389,2.0387,2.0391,2.0401,2.041,2.0412,2.0414,2.0421,2.0424,2.0393,2.0393,2.0393,0,2.0294,2.0309,2.031,2.0321,2.0327,2.0325,2.0336,2.0341,2.035,2.0354,2.035,2.0367,2.0371,2.0386,2.039,2.0393,2.0397,2.0391,2.0411,2.0413,2.0415,2.0422,2.0425,2.0393,2.0393,2.0393,2.0393,0,2.0316,2.0326,2.0334,2.0345,2.0352,2.0363,2.0366,2.0372,2.0371,2.0374,2.0387,2.0391,2.04,2.0403,2.0402,2.0418,2.0416,2.0411,2.0404,2.0419,2.0425,2.0428,2.0394,2.0394,2.0394,2.0394,0,0,2.0334,2.0347,2.035,2.0355,2.0364,2.0372,2.0383,2.0392,2.0398,2.0404,2.0414,2.0425,2.0422,2.0426,2.0426,2.0433,2.0449,2.0428,2.0428,2.0433,2.0467,2.0472,2.0475,2.0447,2.0447,2.0447,2.0467,0,2.0351,2.0372,2.0374,2.0392,2.0402,2.04,2.041,2.0416,2.0419,2.0427,2.0429,2.0438,2.0432,2.0435,2.0442,2.0445,2.0456,2.0444,2.0455,2.0456,2.0456,2.0478,2.0482,2.0501,2.047,2.047,2.0471,0,2.0373,2.0383,2.0402,2.0411,2.0415,2.0424,2.0434,2.0442,2.0449,2.045,2.0456,2.0455,2.0466,2.0457,2.0472,2.0464,2.0469,2.0471,2.0472,2.0474,2.0465,2.0482,2.0507,2.051,2.0475,2.0474,2.0474,0,2.0386,2.0403,2.0418,2.0422,2.0432,2.0439,2.0443,2.045,2.0456,2.0464,2.0468,2.0476,2.0481,2.0487,2.0488,2.0482,2.0504,2.0495,2.0506,2.0506,2.0511,2.0511,2.0538,2.0512,2.0512,2.0512,2.0512,0,2.0406,2.0418,2.0424,2.0433,2.0447,2.0449,2.0462,2.0466,2.0472,2.0481,2.0479,2.0488,2.0489,2.0497,2.0498,2.0511,2.0512,2.0514,2.0514,2.0515,2.0515,2.0519,2.0518,2.0513,2.0512,2.0512,2.0512,0,2.0423,2.0427,2.0443,2.0452,2.0455,2.0465,2.0472,2.048,2.0483,2.0495,2.0498,2.0502,2.0512,2.0514,2.0525,2.0525,2.0541,2.0539,2.054,2.054,2.0551,2.055,2.0582,2.0587,2.0556,2.0557,2.0557,0,2.0435,2.0445,2.0456,2.0463,2.0468,2.0479,2.0486,2.0488,2.0495,2.0504,2.0511,2.0522,2.053,2.0546,2.055,2.0559,2.0558,2.0568,2.0559,2.056,2.0559,2.056,2.0561,2.0571,2.0571,2.0571,2.0571,0,2.0458,2.046,2.047,2.0482,2.049,2.0499,2.0507,2.0513,2.0516,2.0524,2.0535,2.0542,2.0554,2.0565,2.0574,2.0577,2.0575,2.0574,2.0577,2.0579,2.0579,2.0581,2.0546,2.0574,2.0573,2.0573,2.0573,2.0573,2.0474,2.0483,2.0493,2.0505,2.0512,2.052,2.0529,2.0533,2.0543,2.0555,2.0555,2.0567,2.0574,2.0587,2.0591,2.06,2.0597,2.0601,2.0602,2.0604,2.0605,2.0577,2.0602,2.0602,2.0601,2.0601,2.0601,0,2.0497,2.0504,2.0515,2.0528,2.0537,2.0535,2.0545,2.0552,2.0564,2.0571,2.058,2.0594,2.0604,2.0608,2.0618,2.0625,2.0625,2.0628,2.0628,2.0629,2.0607,2.0604,2.0628,2.0628,2.0628,2.0628,2.0628,2.0628,2.0511,2.0527,2.0531,2.055,2.0556,2.057,2.0575,2.0583,2.0589,2.0605,2.0614,2.0617,2.0623,2.0634,2.0643,2.0644,2.0649,2.0653,2.0653,2.0633,2.063,2.0628,2.0625,2.0653,2.0653,2.0675,2.0675,2.0675]}]]